Retour au catalogue

TIANMU-1 08

ActifMétéoSSO
NORAD 57400·PAYLOAD·🇨🇳 China

Lancé Jul 20, 2023 depuis Jiuquan Satellite Launch Center

Loading…

Prochains Passages (prochaines 24 heures)

TLE

FraisSource: Space-Track

Époque: Sep 14, 2026, 21:54 UTC

1 57400U 23101B   26257.91268767  .00005371  00000-0  18351-3 0  9998
2 57400  97.2494 306.2923 0004764 142.4025 217.7550 15.30698964175367

Suivez TIANMU-1 08 en temps réel avec AllMySat

Download on the App Store